Regional Weather Roundup
Issued by NWS

Home | Current Version | Previous Version | Graphics & Text | Print | Product List | Glossary On
Versions: 1 2 3 4 5 6 7 8 9 10 11 12 13 14 15 16 17 18 19 20 21 22 23 24 25 26 27 28 29 30 31 32 33 34 35 36 37 38 39 40 41 42 43 44 45 46 47 48 49 50
000
ASUS43 KDMX 250506
RWRIA

WEATHER ROUNDUP FOR IOWA
NATIONAL WEATHER SERVICE DES MOINES IA
1200 AM CDT THU MAY 25 2017

NOTE: "FAIR" INDICATES FEW OR NO CLOUDS BELOW 12,000 FEET WITH NO
SIGNIFICANT WEATHER AND/OR OBSTRUCTIONS TO VISIBILITY.

* - THESE STATIONS ARE NOT NWS STATIONS...THUS NOT UNDER NWS
QUALITY CONTROL.  THEY ALSO DO NOT REPORT WEATHER SUCH
AS PRECIPITATION OR FOG.

IAZ001>003-012>014-020>022-031>034-043>046-250600-
   NORTHWEST IOWA

CITY           SKY/WX    TMP DP  RH WIND       PRES   REMARKS
CARROLL *      CLEAR     50  50 100 CALM      29.69S
CHEROKEE *     CLEAR     48  46  91 E3        29.69S
DENISON *      CLEAR     50  46  87 E5        29.70S
LE MARS *      CLEAR     54  45  71 SE7       29.67F
ORANGE CITY *  CLEAR     52  46  82 E5        29.67F
SHELDON *      CLEAR     50  45  81 E9        29.66F
SIOUX CITY     CLEAR     50  45  83 SE7       29.66S
SPENCER        CLEAR     49  45  86 E3        29.69S
STORM LAKE *   CLEAR     52  45  76 SE6       29.69F
$$

IAZ055>058-069>071-079>083-090>094-250600-
   SOUTHWEST IOWA

CITY           SKY/WX    TMP DP  RH WIND       PRES   REMARKS
ATLANTIC *     CLEAR     54  48  82 CALM      29.70S
AUDUBON *      CLEAR     46  45  93 CALM      29.71S
CLARINDA *     CLEAR     48  48 100 CALM      29.72S
COUNCIL BLFS * CLEAR     54  46  76 SE6       29.68F
CRESTON *      CLEAR     50  48  93 CALM      29.72S
HARLAN  *      CLEAR     50  48  93 CALM      29.72F
LAMONI         CLEAR     52  48  86 CALM      29.70S
RED OAK *      PTCLDY    54  48  82 CALM      29.70S
SHENANDOAH *   CLEAR     54  48  82 SE5       29.70S
$$

IAZ047>049-059>061-072>074-084-250600-
   CENTRAL IOWA

CITY           SKY/WX    TMP DP  RH WIND       PRES   REMARKS
AMES           CLEAR     48  47  96 CALM      29.70S
ANKENY *       CLEAR     46  45  93 CALM      29.71R FOG
BOONE *        CLEAR     50  50 100 CALM      29.70R
CHARITON *     CLEAR     52  48  87 CALM      29.70S
DES MOINES     CLEAR     53  48  83 CALM      29.70R
GRINNELL*      CLEAR     50  46  87 CALM      29.71R
KNOXVILLE *    CLEAR     52  48  87 N3        29.69S
MARSHALLTOWN   CLEAR     50  48  93 CALM      29.69S
NEWTON *       CLEAR     52  48  87 CALM      29.69S
PELLA *        CLEAR     49  47  93 CALM      29.71S
PERRY *          N/A     53  51  93 CALM      29.70S
$$

IAZ004>006-015-016-023>025-035-036-250600-
   NORTH CENTRAL IOWA

CITY           SKY/WX    TMP DP  RH WIND       PRES   REMARKS
ALGONA *       CLEAR     50  50 100 E5        29.70S
CLARION *      CLEAR     50  50 100 E3        29.70S
ESTHERVILLE    CLEAR     50  48  93 E5        29.69F
FORT DODGE *   CLEAR     48  45  87 E7        29.70F
MASON CITY     CLEAR     49  46  90 CALM      29.71S
FOREST CITY *    N/A     48  36  61 CALM      29.71S
WEBSTER CITY * CLEAR     48  46  93 CALM      29.68S
IOWA FALLS *     N/A     51  48  90 CALM      29.72R
$$

IAZ007>011-017>019-026>030-037>042-050>054-066-250600-
   NORTHEAST IOWA

CITY           SKY/WX    TMP DP  RH WIND       PRES   REMARKS
CEDAR RAPIDS   CLEAR     53  51  93 N9        29.67S
CHARLES CITY * CLEAR     52  50  93 CALM      29.71S
CLINTON *      CLOUDY    55  52  89 N10       29.65S
DECORAH *      PTCLDY    50  48  93 N3        29.69F
DUBUQUE        CLOUDY    54  51  90 N8        29.67S
MONTICELLO *   CLOUDY    52  50  93 NW6       29.67F
OELWEIN *      CLEAR     50  48  93 N6        29.71R
WATERLOO       CLEAR     47  45  93 CALM      29.69S
$$

IAZ064-065-067-068-078-250600-
   EAST CENTRAL IOWA

CITY           SKY/WX    TMP DP  RH WIND       PRES   REMARKS
DAVENPORT      CLOUDY    55  51  86 N12       29.65F
IOWA CITY      CLEAR     55  49  80 N7        29.68S
MT. PLEASANT * CLOUDY    55  50  83 N7        29.67S
MUSCATINE *    CLOUDY    55  50  82 N8        29.66F
QUAD CITIES    CLOUDY    58  50  75 NW9       29.64S
$$

IAZ062-063-075>077-085>089-095>099-250600-
   SOUTHEAST IOWA

CITY           SKY/WX    TMP DP  RH WIND       PRES   REMARKS
BURLINGTON     PTCLDY    55  52  89 N8        29.65S
FAIRFIELD *    CLEAR     50  48  93 NW8       29.67S
FORT MADISON * PTCLDY    55  52  88 N6        29.66F
KEOKUK *       MOCLDY    55  52  88 NW5       29.65S
OSKALOOSA *      N/A     50  46  88 N6        29.69S
CENTERVILLE *    N/A     50  48  93 CALM      29.70S
OTTUMWA        CLEAR     46  45  96 N7        29.69R
WASHINGTON *   CLOUDY    55  52  88 N7        29.68S
$$

ABBREVIATIONS USED IN REMARKS
   TC - TEMPERATURES IN CELSIUS
  WCI - WIND CHILL INDEX
   HX - HEAT INDEX
  VSB - VISIBILITY
$$





USA.gov is the U.S. government's official web portal to all federal, state and local government web resources and services.